Weather Service Report


944 
ASUS44 KLZK 090505
RWRLZK

WEATHER ROUNDUP FOR ARKANSAS
NATIONAL WEATHER SERVICE LITTLE ROCK AR
1100 PM CST MON FEB 08 2016

NOTE: "FAIR" INDICATES FEW OR NO CLOUDS BELOW 12,000 FEET WITH NO
SIGNIFICANT WEATHER AND/OR OBSTRUCTIONS TO VISIBILITY.

ARZ001-003-010-029-090600-
NORTHWEST ARKANSAS
  
CITY           SKY/WX    TMP DP  RH WIND       PRES   REMARKS
FAYETTEVILLE   CLOUDY    31  14  49 NW9       30.11S WCI  23          
FORT SMITH     PTCLDY    39  11  31 W12       30.15F                  
HARRISON       CLEAR     30  13  49 NW18G28   30.02F WCI  18          
BENTONVILLE    PTCLDY   N/A N/A N/A NW10G21   30.09S                  
ROGERS         MOCLDY    31  15  52 NW10G22   30.09S WCI  22          
SILOAM SPGS    MOCLDY    32  10  40 NW18      30.12R WCI  20          
HIGHFILL       CLOUDY    32  15  49 NW13G21   30.09F WCI  22          
$$

ARZ004-005-016-090600-
NORTH CENTRAL ARKANSAS
  
CITY           SKY/WX    TMP DP  RH WIND       PRES   REMARKS
BATESVILLE     CLOUDY    36  12  38 W13G18    30.02S                  
FLIPPIN        CLEAR    N/A N/A N/A NW13G24   30.00S                  
MTN HOME       PTCLDY    31  14  49 NW8       30.00F WCI  23          
$$

ARZ040-041-090600-
WEST CENTRAL ARKANSAS
  
CITY           SKY/WX    TMP DP  RH WIND       PRES   REMARKS
MENA           CLEAR     39  16  38 NW12      30.11F                  
MOUNT IDA      PTCLDY    39  12  33 NW8G17    30.08S                  
$$

ARZ009-017-025-026-028-090600-
NORTHEAST ARKANSAS
  
CITY           SKY/WX    TMP DP  RH WIND       PRES   REMARKS
CORNING        FAIR      32  19  59 NW21G32   29.98F WCI  20          
JONESBORO      MOCLDY    33  21  61 NW15G24   29.99F WCI  23          
NEWPORT        CLOUDY    36  18  48 N12       30.02F                  
WALNUT RIDGE   PTCLDY    32  18  55 NW18      30.01S WCI  20          
BLYTHEVILLE    CLOUDY    34  20  56 NW14      29.98F WCI  25          
$$

ARZ022-023-033-042-044-090600-
CENTRAL ARKANSAS
  
CITY           SKY/WX    TMP DP  RH WIND       PRES   REMARKS
LITTLE ROCK    CLEAR     39  16  39 NW17G25   30.08S                  
N LITTLE ROCK  CLEAR     35  18  50 W5        30.08S WCI  31          
JACKSONVILLE   CLEAR     35  17  47 W6        30.06S WCI  30          
SEARCY         PTCLDY    36  16  44 NW9       30.06S                  
HOT SPRINGS    PTCLDY    40  12  32 NW16G30   30.09F                  
RUSSELLVILLE   CLEAR     37  13  37 W16G25    30.08S                  
CLINTON        FAIR      36  14  41 NW10G25   30.05F                  
$$

ARZ036-090600-
EAST ARKANSAS
  
CITY           SKY/WX    TMP DP  RH WIND       PRES   REMARKS
WEST MEMPHIS   CLOUDY    35  23  61 NW5       30.01F HAZE    WCI  31  
$$

ARZ050-053-066-070-073-090600-
SOUTHWEST ARKANSAS
  
CITY           SKY/WX    TMP DP  RH WIND       PRES   REMARKS
ARKADELPHIA    FAIR      41  15  35 W9        30.12S                  
CAMDEN         MIX PCPN  39  10  30 NW10      30.12S                  
TEXARKANA      CLEAR     42  14  32 NW10      30.16R                  
EL DORADO      PTCLDY    40  13  33 W8        30.12F                  
DE QUEEN       PTCLDY    42  14  32 NW13      30.16R                  
$$

ARZ056-057-069-090600-
SOUTHEAST ARKANSAS
  
CITY           SKY/WX    TMP DP  RH WIND       PRES   REMARKS
PINE BLUFF     CLEAR     37  17  44 NW12      30.08F                  
STUTTGART      CLEAR     36  21  55 NW14      30.06F                  
MONTICELLO     CLEAR     31  20  63 W6        30.07F WCI  25          

$$


  

Return to Home page


Western Regional Climate Center, wrcc@dri.edu